map of JJI home
JJI - Airport
Location
City:  Juanjuí, San Martín, Perú
Name:Juanjuí Airport
ICAO:SPJI
IATA:JJI

Details
Type:Airport (Aerodrome, Airfield)
Use:Public/Civil
Latitude:7°10'11"S (-7.169721)
Longitude:76°43'45"W (-76.729166)
Elevation:1148 ft (350 m)
Variation:3.51°W (WMM2015 magnetic declination)
-0.17° annual change
Runways:1
Longest:6562 × 98 ft (2000 × 30 m)

Time
Time Zone:UTC-5
Local Time:

Weather
METAR:SPJI 212000Z 00000KT 9999 FEW020 31/24 Q1019 RMK PP000
TAF:SPJI 211700Z 2118/2218 VRB02KT 9999 SCT020 BKN080 TX29/2119Z TN16/2210Z
TEMPO 2200/2204 10005KT 5000 RA BKN012 OVC060

Related Locations
Nearby:
Farthest:KBR: 12342 mi / 19862 km
Kota Bharu [Sultan Ismail Petra], 03, MY

Find:

   beyond  
but within

Other Information
Maps:
NOTAMs:
Links:
Sources:

  
  • flag of Perú
  

Sectional Chart

Flight Planning
at skyvector.com

Satellite Image

Google Maps Satellite view

 

Copyright © 2004-2019 Karl L. Swartz. All rights reserved.
The Great Circle Mapper name and logo are trademarks of the Great Circle Mapper.
All other trademarks mentioned herein belong to their respective owners.
Please see credits for attibutions and further copyright information.

  Follow gcmap on Facebook Follow gcmap on Twitter Follow gcmap on Google+ GCmap on LinkedIn

hCard Microformat

Geo Microformat